This is the latest recevied weather packets stored in our database for station/object DB0MW-13. If no packets are shown the sender has not sent any weather packets the latest 1 day(s).
| Time | Temp. | Humidity | Pressure | Rain* | Wind** | Luminosity | Snow |
|---|---|---|---|---|---|---|---|
| 1777970700 | 20° C | 61% | 1009.9 hPa | 0 mm | 0 m/s | - | - |
| 1777970400 | 19.44° C | 61% | 1010.1 hPa | 0 mm | 0 m/s | - | - |
| 1777970100 | 19.44° C | 61% | 1010.2 hPa | 0 mm | 0 m/s | - | - |
| 1777969800 | 19.44° C | 64% | 1010.1 hPa | 0 mm | 0 m/s | - | - |
| 1777969500 | 19.44° C | 66% | 1010 hPa | 0 mm | 0 m/s | - | - |
| 1777969200 | 18.89° C | 66% | 1010.2 hPa | 0 mm | 0 m/s | - | - |
| 1777968901 | 18.89° C | 68% | 1010.2 hPa | 0 mm | 0.45 m/s, 119° | - | - |
| 1777968601 | 18.33° C | 68% | 1009.9 hPa | 0 mm | 0.45 m/s, 203° | - | - |
| 1777968301 | 18.33° C | 69% | 1010.3 hPa | 0 mm | 0 m/s | - | - |
| 1777968001 | 18.33° C | 70% | 1010.1 hPa | 0 mm | 0.45 m/s, 198° | - | - |
| 1777967701 | 17.78° C | 72% | 1010.2 hPa | 0 mm | 0 m/s | - | - |
| 1777967401 | 17.78° C | 72% | 1010.2 hPa | 0 mm | 0.45 m/s, 214° | - | - |
| 1777967101 | 17.78° C | 73% | 1010.4 hPa | 0 mm | 0.45 m/s, 192° | - | - |
| 1777966801 | 17.22° C | 74% | 1010.4 hPa | 0 mm | 0.45 m/s, 202° | - | - |
| 1777966501 | 17.22° C | 75% | 1010.3 hPa | 0 mm | 0.45 m/s, 196° | - | - |
| 1777966201 | 17.22° C | 75% | 1010.3 hPa | 0 mm | 0 m/s | - | - |
| 1777965901 | 16.67° C | 75% | 1010.4 hPa | 0 mm | 0 m/s | - | - |
| 1777965600 | 16.67° C | 77% | 1010.6 hPa | 0 mm | 0 m/s | - | - |
| 1777965301 | 16.11° C | 78% | 1010.5 hPa | 0 mm | 0 m/s | - | - |
| 1777965000 | 16.11° C | 79% | 1010.6 hPa | 0 mm | 0 m/s | - | - |
| 1777964701 | 16.11° C | 80% | 1010.7 hPa | 0 mm | 0.45 m/s, 203° | - | - |
| 1777964400 | 15.56° C | 80% | 1010.9 hPa | 0 mm | 0.45 m/s, 221° | - | - |
| 1777964100 | 15.56° C | 81% | 1010.6 hPa | 0 mm | 0.45 m/s, 203° | - | - |
| 1777963800 | 15.56° C | 81% | 1010.6 hPa | 0 mm | 0 m/s | - | - |
| 1777963500 | 15.56° C | 81% | 1010.7 hPa | 0 mm | 0 m/s | - | - |
* Rain latest hour (hover to see other rain measurements)
** Current wind speed in m/s (hover to see current wind gust speed)